�������l�o���
Date,Time,MP-1(��Sv/h),MP-2(��Sv/h),MP-3(��Sv/h),MP-4(��Sv/h),MP-5(��Sv/h),MP-6(��Sv/h),MP-7(��Sv/h),MP-8(��Sv/h),����,����(m/s),���J
2019/02/15,00:00,0.774,1.145,0.792,1.477,1.060,0.440,0.787,0.745,��,5.6,��
2019/02/15,00:10,0.772,1.149,0.791,1.475,1.057,0.440,0.788,0.746,���쐼,6.1,��
2019/02/15,00:20,0.774,1.146,0.793,1.474,1.058,0.439,0.788,0.746,���쐼,5.7,��
2019/02/15,00:30,0.771,1.149,0.792,1.473,1.058,0.439,0.787,0.748,��,4.4,��
2019/02/15,00:40,0.772,1.148,0.792,1.475,1.060,0.440,0.788,0.745,��,4.5,��
2019/02/15,00:50,0.771,1.149,0.793,1.473,1.057,0.439,0.786,0.744,���쐼,3.9,��
2019/02/15,01:00,0.773,1.146,0.792,1.471,1.059,0.439,0.787,0.747,��,6.1,��
2019/02/15,01:10,0.771,1.144,0.792,1.475,1.058,0.439,0.786,0.745,���쐼,5.9,��
2019/02/15,01:20,0.772,1.147,0.794,1.475,1.059,0.439,0.787,0.746,��,7.1,��
2019/02/15,01:30,0.773,1.148,0.794,1.473,1.057,0.440,0.787,0.745,��,6.7,��
2019/02/15,01:40,0.771,1.147,0.792,1.474,1.059,0.439,0.787,0.747,��,5.8,��
2019/02/15,01:50,0.771,1.145,0.792,1.472,1.058,0.439,0.788,0.746,���k��,4.7,��
2019/02/15,02:00,0.771,1.149,0.792,1.475,1.057,0.440,0.787,0.745,���k��,7.1,��
2019/02/15,02:10,0.773,1.148,0.794,1.477,1.058,0.440,0.787,0.746,���k��,6.6,��
2019/02/15,02:20,0.774,1.147,0.793,1.474,1.057,0.440,0.789,0.746,��,6.9,��
2019/02/15,02:30,0.772,1.149,0.792,1.474,1.059,0.439,0.786,0.745,���k��,6.0,��
2019/02/15,02:40,0.773,1.148,0.792,1.473,1.056,0.440,0.787,0.745,���k��,5.4,��
2019/02/15,02:50,0.772,1.147,0.792,1.477,1.056,0.439,0.787,0.746,���k��,4.4,��
2019/02/15,03:00,0.774,1.148,0.790,1.476,1.056,0.439,0.786,0.746,���k��,4.6,��
2019/02/15,03:10,0.770,1.146,0.794,1.475,1.058,0.440,0.787,0.747,���k��,4.7,��
2019/02/15,03:20,0.771,1.145,0.791,1.472,1.056,0.439,0.787,0.746,���k��,4.6,��
2019/02/15,03:30,0.771,1.145,0.791,1.477,1.058,0.439,0.788,0.745,��,5.0,��
2019/02/15,03:40,0.770,1.147,0.794,1.477,1.057,0.440,0.786,0.746,���k��,7.3,��
2019/02/15,03:50,0.772,1.148,0.792,1.472,1.056,0.440,0.788,0.746,���k��,7.2,��
2019/02/15,04:00,0.770,1.143,0.792,1.474,1.056,0.440,0.787,0.744,���k��,7.3,��
2019/02/15,04:10,0.770,1.147,0.792,1.474,1.056,0.439,0.786,0.745,���k��,6.5,��
2019/02/15,04:20,0.774,1.147,0.791,1.472,1.056,0.439,0.786,0.746,��,4.6,��
2019/02/15,04:30,0.770,1.147,0.792,1.473,1.057,0.440,0.788,0.746,��,5.6,��
2019/02/15,04:40,0.771,1.145,0.794,1.471,1.058,0.439,0.786,0.747,��,5.9,��
2019/02/15,04:50,0.772,1.145,0.789,1.475,1.057,0.439,0.785,0.746,��,5.5,��
2019/02/15,05:00,0.770,1.146,0.793,1.476,1.055,0.440,0.787,0.745,��,5.4,��
2019/02/15,05:10,0.770,1.147,0.793,1.475,1.057,0.439,0.787,0.746,���k��,6.3,��
2019/02/15,05:20,0.771,1.149,0.791,1.471,1.056,0.438,0.786,0.745,���k��,6.1,��
2019/02/15,05:30,0.769,1.149,0.791,1.475,1.054,0.438,0.788,0.747,���k��,5.9,��
2019/02/15,05:40,0.772,1.147,0.792,1.474,1.057,0.439,0.788,0.746,���k��,6.2,��
2019/02/15,05:50,0.772,1.147,0.794,1.472,1.056,0.437,0.786,0.747,���k��,5.2,��
2019/02/15,06:00,0.773,1.146,0.792,1.474,1.054,0.438,0.788,0.747,��,4.9,��
2019/02/15,06:10,0.769,1.145,0.793,1.474,1.056,0.439,0.786,0.747,��,5.6,��
2019/02/15,06:20,0.772,1.146,0.791,1.475,1.056,0.440,0.789,0.747,���k��,4.7,��
2019/02/15,06:30,0.770,1.148,0.793,1.474,1.056,0.439,0.787,0.745,���k��,3.0,��
2019/02/15,06:40,0.770,1.145,0.791,1.474,1.058,0.439,0.787,0.745,��,3.6,��
2019/02/15,06:50,0.771,1.146,0.792,1.473,1.055,0.438,0.787,0.747,���k��,5.1,��
2019/02/15,07:00,0.770,1.144,0.792,1.474,1.056,0.440,0.785,0.746,��,3.0,��
2019/02/15,07:10,0.772,1.145,0.792,1.473,1.057,0.440,0.786,0.745,��,4.0,��
2019/02/15,07:20,0.772,1.144,0.792,1.473,1.056,0.439,0.787,0.746,��,3.8,��
2019/02/15,07:30,0.771,1.145,0.792,1.472,1.057,0.439,0.785,0.747,���쐼,3.2,��
2019/02/15,07:40,0.773,1.144,0.792,1.473,1.057,0.438,0.786,0.746,���쐼,3.8,��
2019/02/15,07:50,0.773,1.147,0.791,1.474,1.057,0.439,0.787,0.747,���쐼,4.1,��
2019/02/15,08:00,0.771,1.145,0.792,1.474,1.058,0.440,0.786,0.746,���쐼,4.5,��
2019/02/15,08:10,0.771,1.147,0.793,1.474,1.058,0.440,0.787,0.747,��,4.8,��
2019/02/15,08:20,0.774,1.141,0.792,1.478,1.057,0.439,0.786,0.746,��,3.9,��
2019/02/15,08:30,0.774,1.146,0.791,1.476,1.057,0.439,0.787,0.745,���k��,4.4,��
2019/02/15,08:40,0.775,1.145,0.793,1.472,1.060,0.440,0.786,0.746,���k��,4.0,��
2019/02/15,08:50,0.774,1.144,0.791,1.478,1.056,0.441,0.786,0.746,��,3.3,��
2019/02/15,09:00,0.775,1.144,0.792,1.475,1.058,0.441,0.787,0.745,��,3.1,��
2019/02/15,09:10,0.773,1.146,0.793,1.474,1.058,0.439,0.786,0.747,�k��,3.6,��
2019/02/15,09:20,0.775,1.144,0.794,1.473,1.059,0.440,0.787,0.746,�k��,3.0,��
2019/02/15,09:30,0.775,1.146,0.793,1.477,1.060,0.439,0.786,0.745,���k��,2.3,��
2019/02/15,09:40,0.774,1.145,0.794,1.475,1.057,0.441,0.786,0.747,�k�k��,3.1,��
2019/02/15,09:50,0.774,1.147,0.794,1.478,1.060,0.441,0.784,0.748,�k,3.2,��
2019/02/15,10:00,0.775,1.144,0.793,1.476,1.060,0.439,0.782,0.746,�k�k��,4.0,��
2019/02/15,10:10,0.776,1.147,0.794,1.476,1.055,0.441,0.784,0.746,�k�k��,2.6,��
2019/02/15,10:20,0.776,1.143,0.793,1.473,1.047,0.440,0.786,0.746,�k,2.2,��
2019/02/15,10:30,0.775,1.144,0.793,1.476,1.047,0.442,0.786,0.746,�k,3.9,��
2019/02/15,10:40,0.776,1.145,0.794,1.474,1.044,0.440,0.785,0.747,�k,3.1,��
2019/02/15,10:50,0.776,1.148,0.795,1.479,1.050,0.441,0.784,0.747,�k��,4.0,��
2019/02/15,11:00,0.777,1.147,0.794,1.476,1.037,0.441,0.784,0.748,�k��,4.3,��
2019/02/15,11:10,0.778,1.150,0.796,1.478,1.046,0.441,0.784,0.747,�k��,5.0,��
2019/02/15,11:20,0.775,1.147,0.795,1.473,1.057,0.439,0.785,0.746,�k��,4.8,��
2019/02/15,11:30,0.777,1.148,0.794,1.478,1.062,0.441,0.783,0.748,���k��,4.2,��
2019/02/15,11:40,0.776,1.146,0.798,1.479,1.062,0.441,0.784,0.747,�k��,4.6,��
2019/02/15,11:50,0.776,1.151,0.794,1.476,1.061,0.442,0.786,0.747,�k��,3.9,��
2019/02/15,12:00,0.778,1.149,0.795,1.479,1.059,0.442,0.784,0.748,���k��,3.6,��
2019/02/15,12:10,0.777,1.152,0.795,1.478,1.062,0.440,0.785,0.747,��,4.0,��
2019/02/15,12:20,0.777,1.153,0.795,1.478,1.063,0.441,0.783,0.748,��,3.9,��
2019/02/15,12:30,0.777,1.152,0.798,1.477,1.061,0.441,0.785,0.748,��,3.5,��
2019/02/15,12:40,0.780,1.151,0.797,1.477,1.063,0.442,0.786,0.748,���쓌,4.2,��
2019/02/15,12:50,0.779,1.150,0.796,1.481,1.062,0.440,0.784,0.748,�쓌,4.5,��
2019/02/15,13:00,0.778,1.151,0.795,1.479,1.062,0.442,0.788,0.749,�쓌,4.0,��
2019/02/15,13:10,0.778,1.148,0.795,1.481,1.065,0.440,0.787,0.748,��쓌,5.1,��
2019/02/15,13:20,0.779,1.149,0.794,1.478,1.062,0.443,0.788,0.749,��쓌,5.5,��
2019/02/15,13:30,0.779,1.151,0.794,1.479,1.062,0.442,0.787,0.750,��쓌,6.2,��
2019/02/15,13:40,0.778,1.149,0.795,1.479,1.062,0.441,0.787,0.748,��쓌,6.3,��
2019/02/15,13:50,0.777,1.150,0.796,1.478,1.062,0.443,0.787,0.747,��쓌,6.5,��
2019/02/15,14:00,0.777,1.148,0.795,1.479,1.064,0.442,0.785,0.748,��쓌,6.9,��
2019/02/15,14:10,0.778,1.150,0.796,1.478,1.063,0.443,0.786,0.747,��쓌,7.0,��
2019/02/15,14:20,0.780,1.150,0.796,1.481,1.064,0.443,0.789,0.747,��쓌,7.2,��
2019/02/15,14:30,0.779,1.149,0.796,1.478,1.062,0.443,0.787,0.747,��쓌,6.4,��
2019/02/15,14:40,0.779,1.149,0.796,1.479,1.064,0.443,0.789,0.745,��쓌,8.5,��
2019/02/15,14:50,0.778,1.152,0.799,1.482,1.065,0.442,0.789,0.747,��쓌,8.9,��
2019/02/15,15:00,0.778,1.150,0.797,1.477,1.064,0.443,0.789,0.747,��쓌,8.7,��
2019/02/15,15:10,0.779,1.149,0.797,1.476,1.063,0.444,0.789,0.747,��쓌,7.9,��
2019/02/15,15:20,0.779,1.152,0.798,1.479,1.064,0.443,0.789,0.748,��쓌,8.3,��
2019/02/15,15:30,0.780,1.152,0.795,1.480,1.064,0.444,0.786,0.748,��쓌,8.9,��
2019/02/15,15:40,0.779,1.153,0.797,1.478,1.064,0.444,0.791,0.748,��,9.4,��
2019/02/15,15:50,0.778,1.156,0.796,1.479,1.065,0.444,0.788,0.749,��,7.4,��
2019/02/15,16:00,0.778,1.154,0.796,1.481,1.065,0.443,0.789,0.749,��,8.5,��
2019/02/15,16:10,0.778,1.154,0.797,1.477,1.066,0.441,0.789,0.748,��,8.1,��
2019/02/15,16:20,0.778,1.156,0.795,1.479,1.066,0.444,0.789,0.748,��,7.6,��
2019/02/15,16:30,0.777,1.155,0.796,1.477,1.065,0.444,0.789,0.749,��,6.6,��
2019/02/15,16:40,0.778,1.157,0.797,1.476,1.065,0.443,0.790,0.747,��,6.5,��
2019/02/15,16:50,0.775,1.155,0.797,1.478,1.065,0.444,0.791,0.748,��쐼,7.2,��
2019/02/15,17:00,0.778,1.157,0.798,1.480,1.064,0.443,0.790,0.748,��,6.3,��
2019/02/15,17:10,0.777,1.158,0.796,1.478,1.065,0.442,0.792,0.748,��쐼,5.1,��
2019/02/15,17:20,0.776,1.157,0.798,1.480,1.065,0.445,0.789,0.747,��,5.5,��
2019/02/15,17:30,0.777,1.156,0.797,1.480,1.067,0.444,0.793,0.749,��쐼,5.1,��
2019/02/15,17:40,0.778,1.157,0.798,1.477,1.067,0.445,0.790,0.747,��쐼,5.1,�L
2019/02/15,17:50,0.778,1.156,0.799,1.480,1.066,0.443,0.790,0.749,��쐼,6.6,�L
2019/02/15,18:00,0.778,1.158,0.798,1.480,1.065,0.444,0.790,0.747,�쐼,4.2,�L
2019/02/15,18:10,0.778,1.155,0.795,1.479,1.068,0.445,0.790,0.747,�쐼,4.0,�L
2019/02/15,18:20,0.777,1.156,0.797,1.479,1.066,0.444,0.791,0.750,���쐼,3.5,�L
2019/02/15,18:30,0.781,1.157,0.797,1.478,1.069,0.446,0.791,0.748,���쐼,3.0,�L
2019/02/15,18:40,0.780,1.155,0.798,1.480,1.067,0.444,0.791,0.747,���쐼,3.5,�L
2019/02/15,18:50,0.777,1.155,0.797,1.481,1.066,0.446,0.788,0.748,�쐼,3.3,�L
2019/02/15,19:00,0.778,1.154,0.800,1.480,1.065,0.445,0.791,0.748,�쐼,3.0,�L
2019/02/15,19:10,0.776,1.155,0.799,1.480,1.064,0.444,0.790,0.749,�쐼,2.8,�L
2019/02/15,19:20,0.779,1.155,0.797,1.480,1.066,0.443,0.788,0.748,�쐼,3.6,�L
2019/02/15,19:30,0.778,1.153,0.796,1.479,1.065,0.444,0.790,0.748,��쐼,2.9,�L
2019/02/15,19:40,0.779,1.153,0.797,1.478,1.064,0.445,0.788,0.748,��,3.8,�L
2019/02/15,19:50,0.775,1.150,0.796,1.479,1.063,0.445,0.788,0.747,��,4.0,�L
2019/02/15,20:00,0.778,1.152,0.796,1.480,1.064,0.444,0.788,0.748,��,3.9,�L
2019/02/15,20:10,0.777,1.153,0.797,1.477,1.064,0.446,0.790,0.747,��,4.2,�L
2019/02/15,20:20,0.777,1.153,0.797,1.479,1.064,0.445,0.789,0.747,��,3.7,�L
2019/02/15,20:30,0.776,1.150,0.797,1.480,1.064,0.443,0.789,0.747,��,3.5,�L
2019/02/15,20:40,0.776,1.152,0.797,1.476,1.062,0.444,0.789,0.746,��,2.8,��
2019/02/15,20:50,0.774,1.151,0.795,1.477,1.064,0.444,0.789,0.747,��쓌,2.6,��
2019/02/15,21:00,0.777,1.152,0.795,1.480,1.065,0.445,0.790,0.747,��쓌,2.6,��
2019/02/15,21:10,0.776,1.150,0.795,1.477,1.062,0.444,0.789,0.748,��쓌,2.3,��
2019/02/15,21:20,0.776,1.151,0.796,1.478,1.063,0.443,0.790,0.745,��쓌,3.0,��
2019/02/15,21:30,0.777,1.151,0.796,1.481,1.064,0.443,0.789,0.748,��쓌,2.6,��
2019/02/15,21:40,0.777,1.153,0.797,1.478,1.061,0.444,0.789,0.748,��쓌,2.3,��
2019/02/15,21:50,0.777,1.151,0.795,1.476,1.060,0.443,0.789,0.749,��쓌,1.1,��
2019/02/15,22:00,0.775,1.153,0.796,1.479,1.064,0.444,0.789,0.746,��,0.9,��
2019/02/15,22:10,0.777,1.152,0.798,1.480,1.062,0.446,0.790,0.747,���쐼,0.6,��
2019/02/15,22:20,0.775,1.150,0.794,1.480,1.064,0.443,0.790,0.748,-,CALM,��
2019/02/15,22:30,0.777,1.153,0.796,1.478,1.061,0.442,0.790,0.746,�쓌,1.5,��
2019/02/15,22:40,0.776,1.152,0.797,1.477,1.063,0.444,0.789,0.746,��쓌,2.6,��
2019/02/15,22:50,0.775,1.152,0.796,1.478,1.061,0.444,0.788,0.746,��쓌,3.7,��
2019/02/15,23:00,0.778,1.150,0.796,1.477,1.061,0.444,0.790,0.746,��쓌,3.0,��
2019/02/15,23:10,0.775,1.149,0.795,1.477,1.062,0.443,0.789,0.748,��쓌,3.6,��
2019/02/15,23:20,0.774,1.149,0.796,1.475,1.061,0.445,0.788,0.747,��쓌,3.3,��
2019/02/15,23:30,0.776,1.151,0.796,1.478,1.061,0.442,0.788,0.748,��쓌,3.4,��
2019/02/15,23:40,0.775,1.151,0.794,1.477,1.063,0.444,0.789,0.746,�쓌,3.0,��
2019/02/15,23:50,0.775,1.150,0.794,1.478,1.063,0.443,0.787,0.746,��쓌,2.5,��
